London City, United Kingdom

9:02 AM GMT on February 08, 2016 (GMT +0000)
London City

Weather History for EGLC - July, 2013

Change the Weather History Date:

Friday, July 5, 2013

  Actual Average (WUND) Record (WUND)
Temperature  
Mean Temperature 67 °F -  
Max Temperature 75 °F - - (-1)
Min Temperature 59 °F - - (-1)
Cooling Degree Days 2    
Growing Degree Days 17 (Base 50)    
Moisture  
Dew Point 51 °F    
Average Humidity 58    
Maximum Humidity 77    
Minimum Humidity 38    
Precipitation  
Precipitation 0.00 in - - ()
Sea Level Pressure  
Sea Level Pressure 30.38 in    
Wind  
Wind Speed 4 mph ()    
Max Wind Speed 8 mph    
Max Gust Speed -    
Visibility 6.2 miles    
Events      
Averages and records for this station are not official NWS values.
T = Trace of Precipitation, MM = Missing Value Source: Averaged Metar Reports

Daily Weather History Graph

Daily Weather History Graph

Search for Another Location

Airport or City:

Trip Planner

Search our weather history database for the weather conditions in past years. The results will help you decide how hot, cold, wet, or windy it might be!

Date:

Astronomy

Jul. 05, 2013 Rise Set
Actual Time 4:49 AM BST 9:18 PM BST
Civil Twilight 4:03 AM BST 10:04 PM BST
Nautical Twilight 2:52 AM BST 11:14 PM BST
Astronomical Twilight 1:36 AM BST 12:32 AM BST
Moon 2:47 AM BST (7/5) 6:53 PM BST (7/5)
Length of Visible Light 18h 01m
Length of Day
16h 28m
Waning Crescent, 7% of the Moon is Illuminated
Jul 5
Waning Crescent
Jul 8
New
Jul 16
First Quarter
Jul 22
Full
Jul 29
Last Quarter

Hourly Weather History & Observations

Time (BST) Temp. Dew Point Humidity Pressure Visibility Wind Dir Wind Speed Gust Speed Precip Events Conditions
12:20 AM 62.6 °F 51.8 °F 68% 30.27 in 6.2 mi West 6.9 mph - N/A   Unknown
12:50 AM 60.8 °F 51.8 °F 72% 30.27 in 6.2 mi West 5.8 mph - N/A   Unknown
1:20 AM 60.8 °F 51.8 °F 72% 30.27 in 6.2 mi WSW 5.8 mph - N/A   Unknown
1:50 AM 59.0 °F 51.8 °F 77% 30.30 in 6.2 mi West 4.6 mph - N/A   Unknown
2:20 AM 60.8 °F 53.6 °F 77% 30.30 in 6.2 mi West 6.9 mph - N/A   Unknown
2:50 AM 59.0 °F 51.8 °F 77% 30.30 in 6.2 mi West 4.6 mph - N/A   Unknown
3:20 AM 59.0 °F 51.8 °F 77% 30.30 in 6.2 mi West 3.5 mph - N/A   Unknown
3:50 AM 59.0 °F 51.8 °F 77% 30.30 in 6.2 mi WNW 4.6 mph - N/A   Unknown
4:20 AM 59.0 °F 51.8 °F 77% 30.30 in 6.2 mi West 2.3 mph - N/A   Unknown
4:50 AM 59.0 °F 51.8 °F 77% 30.33 in 6.2 mi WNW 2.3 mph - N/A   Partly Cloudy
5:20 AM 59.0 °F 51.8 °F 77% 30.33 in 6.2 mi WNW 2.3 mph - N/A   Overcast
5:50 AM 59.0 °F 51.8 °F 77% 30.36 in 6.2 mi WNW 2.3 mph - N/A   Mostly Cloudy
6:20 AM 59.0 °F 51.8 °F 77% 30.36 in 6.2 mi Variable 2.3 mph - N/A   Mostly Cloudy
6:50 AM 60.8 °F 51.8 °F 72% 30.36 in 6.2 mi Variable 2.3 mph - N/A   Mostly Cloudy
7:20 AM 60.8 °F 53.6 °F 77% 30.36 in 6.2 mi Calm Calm - N/A   Scattered Clouds
7:50 AM 64.4 °F 51.8 °F 64% 30.39 in - Variable 2.3 mph - N/A   Clear
8:20 AM 64.4 °F 51.8 °F 64% 30.39 in 6.2 mi Variable 3.5 mph - N/A   Partly Cloudy
8:50 AM 64.4 °F 51.8 °F 64% 30.39 in 6.2 mi Variable 3.5 mph - N/A   Scattered Clouds
9:20 AM 66.2 °F 50.0 °F 56% 30.39 in 6.2 mi East 5.8 mph - N/A   Scattered Clouds
9:50 AM 68.0 °F 50.0 °F 52% 30.39 in 6.2 mi East 4.6 mph - N/A   Partly Cloudy
10:20 AM 69.8 °F 50.0 °F 49% 30.39 in - East 5.8 mph - N/A   Clear
10:50 AM 68.0 °F 51.8 °F 56% 30.39 in - East 4.6 mph - N/A   Clear
11:20 AM 71.6 °F 50.0 °F 46% 30.42 in - ESE 4.6 mph - N/A   Clear
11:50 AM 71.6 °F 51.8 °F 50% 30.42 in - East 5.8 mph - N/A   Clear
12:20 PM 73.4 °F 50.0 °F 44% 30.42 in - Variable 4.6 mph - N/A   Clear
12:50 PM 73.4 °F 50.0 °F 44% 30.42 in - Variable 3.5 mph - N/A   Clear
1:20 PM 73.4 °F 50.0 °F 44% 30.42 in - East 5.8 mph - N/A   Clear
1:50 PM 75.2 °F 48.2 °F 38% 30.42 in - Variable 3.5 mph - N/A   Clear
2:20 PM 73.4 °F 48.2 °F 41% 30.42 in - Variable 4.6 mph - N/A   Clear
2:50 PM 75.2 °F 48.2 °F 38% 30.39 in - ENE 4.6 mph - N/A   Clear
3:20 PM 75.2 °F 50.0 °F 41% 30.39 in - Variable 4.6 mph - N/A   Clear
3:50 PM 75.2 °F 48.2 °F 38% 30.39 in - Variable 6.9 mph - N/A   Clear
4:20 PM 75.2 °F 48.2 °F 38% 30.39 in - SE 4.6 mph - N/A   Clear
4:50 PM 75.2 °F 48.2 °F 38% 30.39 in - East 6.9 mph - N/A   Clear
5:20 PM 75.2 °F 50.0 °F 41% 30.39 in - East 8.1 mph - N/A   Clear
5:50 PM 75.2 °F 50.0 °F 41% 30.39 in - East 6.9 mph - N/A   Clear
6:20 PM 75.2 °F 51.8 °F 44% 30.39 in - East 8.1 mph - N/A   Clear
6:50 PM 73.4 °F 50.0 °F 44% 30.39 in - ESE 5.8 mph - N/A   Clear
7:20 PM 73.4 °F 51.8 °F 47% 30.39 in - ESE 8.1 mph - N/A   Clear
7:50 PM 71.6 °F 51.8 °F 50% 30.39 in - ESE 6.9 mph - N/A   Clear
8:20 PM 71.6 °F 55.4 °F 57% 30.39 in - SE 8.1 mph - N/A   Clear
8:50 PM 68.0 °F 53.6 °F 60% 30.39 in - SE 8.1 mph - N/A   Clear
9:20 PM 68.0 °F 53.6 °F 60% 30.42 in - SSE 6.9 mph - N/A   Clear
9:50 PM 66.2 °F 53.6 °F 64% 30.42 in - SSE 8.1 mph - N/A   Clear
10:20 PM 66.2 °F 51.8 °F 60% 30.42 in 6.2 mi SE 5.8 mph - N/A   Unknown
10:50 PM 64.4 °F 51.8 °F 64% 30.42 in 6.2 mi Variable 3.5 mph - N/A   Unknown
11:20 PM 64.4 °F 51.8 °F 64% 30.42 in 6.2 mi Calm Calm - N/A   Unknown
11:50 PM 62.6 °F 51.8 °F 68% 30.45 in 6.2 mi Variable 3.5 mph - N/A   Unknown